Regional Weather Roundup
Issued by NWS

Home | Current Version | Previous Version | Graphics & Text | Print | Product List | Glossary On
Versions: 1 2 3 4 5 6 7 8 9 10 11 12 13 14 15 16 17 18 19 20 21 22 23 24 25 26 27 28 29 30 31 32 33 34 35 36 37 38 39 40 41 42 43 44 45 46 47 48 49 50
000
ASUS45 KBOI 251610
RWRID
WEATHER ROUNDUP FOR IDAHO
NATIONAL WEATHER SERVICE BOISE ID
900 AM MST SUN JAN 25 2015

NOTE: "FAIR" INDICATES FEW OR NO CLOUDS BELOW 12000 FEET
WITH NO SIGNIFICANT WEATHER AND/OR OBSTRUCTIONS TO VISIBILITY

IDZ012-014-251700-
SOUTHWEST IDAHO


CITY           SKY/WX    TMP DP  RH WIND       PRES   REMARKS
BOISE          PTCLDY    29  26  89 CALM      30.48R
CALDWELL       CLOUDY    27  19  74 CALM      30.52R VSB<1/4
MOUNTAIN HOME  PTCLDY    28  26  91 CALM      30.47R
$$

IDZ016-017-251700-
SOUTHCENTRAL IDAHO


CITY           SKY/WX    TMP DP  RH WIND       PRES   REMARKS
BURLEY         PTCLDY    33  30  88 NE5       30.42R WCI  29
JEROME         PTCLDY    29  26  89 NE15      30.44R WCI  18
TWIN FALLS     PTCLDY    34  29  82 CALM      30.44R HAZE
$$

IDZ019>023-251700-
SOUTHEAST IDAHO


CITY           SKY/WX    TMP DP  RH WIND       PRES   REMARKS
IDAHO FALLS    FOG       28  27  96 N3        30.45R VSB 1
POCATELLO      CLOUDY    30  30 100 N5        30.46R FOG     WCI  25
REXBURG        CLOUDY    27  27 100 CALM      30.44S FOG
$$

IDZ006-010-011-018-031-032-251700-
CENTRAL IDAHO MOUNTAINS


CITY           SKY/WX    TMP DP  RH WIND       PRES   REMARKS
MCCALL         FOG       33  32  96 CALM      30.40R VSB 1/4
HAILEY         PTCLDY    19  18  93 CALM      30.43R
STANLEY          N/A     24  21  88 S5        30.45R WCI  18
SALMON         CLEAR     21  19  93 NW5       30.40S WCI  15
CHALLIS        CLEAR     27  26  96 NE3       30.40R
$$

IDZ002-004-006-007-026-251700-
NORTHERN IDAHO


CITY           SKY/WX    TMP DP  RH WIND       PRES   REMARKS
LEWISTON       MOCLDY    47  37  68 VRB5      30.27S
LOWELL           N/A     36  35  96 NW5       30.38S WCI  32
COEUR D`ALENE  MOCLDY    41  37  87 S8        30.22S
MULLAN PASS    MOCLDY    36  35  96 VRB6      30.23R WCI  31
$$



USA.gov is the U.S. government's official web portal to all federal, state and local government web resources and services.